Location: Bacharowice
(49.9333°N, 19.5833°E)
Time: 02:03:21
(UTC+00:00)

USA 308 - Pass Details

Date: 11 May 2021
Orbit: 568 x 576 km, 54.0° (Epoch: 10 May)

Event Time Altitude Azimuth Distance (km) Brightness Sun altitude
Rises 21:23:08 0° 291° (WNW) 2,786 7.0 -20.0°
Reaches altitude 10° 21:25:45 10° 277° (W) 1,885 5.8 -20.1°
Enters shadow 21:28:44 22° 233° (SW) 1,274 4.5 -20.2°
